Location: Amon Carter Post Office
(32.8281°N, 97.0484°W)
Time: 04:55:34
(UTC+00:00)

H-2A R/B - Pass Details

Date: 05 July 2022
Orbit: 577 x 651 km, 98.5° (Epoch: 07 August)

Event Time Altitude Azimuth Distance (km) Brightness Sun altitude
Rises 02:05:37 0° 24° (NNE) 2,949 5.6 -5.5°
Reaches altitude 10° 02:08:00 10° 34° (NE) 2,045 4.7 -5.9°
Maximum altitude 02:12:02 33° 99° (E) 1,095 2.9 -6.6°
Drops below altitude 10° 02:16:03 10° 163° (SSE) 2,048 4.3 -7.3°
Sets 02:18:26 0° 173° (S) 2,955 5.1 -7.7°
